OISY  Yasouj Airport

Add Bookmark

Iran

Status
Operational
Latitude Longitude
30° 42' 1" N 51° 32' 42" E
30.700500 51.545101
Local (DST + 5) UTC (GMT + 4)
Oct 26, 2014 04:28 Oct 26, 2014 00:58
Sunrise-Sunset Local UTC
Begin Civil Twilight 05:48 02:18
Sunrise 06:12 02:42
Sunset 05:22 13:52
End Civil Twilight 05:47 14:17

Current Weather

METAR Observed VFR
OISY 260000Z 00000KT CAVOK 07/01 Q1023 Sun, Oct 26, 2014 @ 00:00 UTC
(58 Minutes ago)
Visual Flight Rules
Wind Visibility Clouds Conditions
Calm 10 km or more
  • Clear skies
  • No significant weather
Temperatures Readings Precipitation
Current Temp 7°C (45°F)
Dewpoint 1°C (34°F)
Humidity 66%
Altimeter 30.21"Hg
Sea Level Pressure 1023mb
Field Elevation 5941.6'
None Recorded

Additional weather within a 92.6km radius of OISY

Map ICAO Location
OIAH 79.6km W (240°)

24 Hour Weather History

Loading
-

24 Hour Weather Graphs

Loading
-

CheckWX.com is intended as a tool to help pilots better visualize weather data. It is not intended as a substitute for an official weather briefing obtained from a Flight Service Station. CheckWX.com does not meet the FAA requirements for an official pre-flight weather briefing. Therefore, it's important that pilots still call and obtain an official FSS pre-flight weather briefing.